Location: Cz?stochówka
(50.8142°N, 19.0915°E)
Time: 10:30:23
(UTC+00:00)

Cosmos 2181 Rocket - Pass Details

Date: 13 January 2026
Orbit: 952 x 1013 km, 82.9° (Epoch: 10 February)

Event Time Altitude Azimuth Distance (km) Brightness Sun altitude
Rises 04:14:03 0° 349° (NNW) 3,708 6.9 -22.4°
Reaches altitude 10° 04:16:34 10° 348° (NNW) 2,764 6.2 -22.0°
Maximum altitude 04:22:55 77° 263° (W) 1,030 3.9 -21.0°
Drops below altitude 10° 04:29:18 10° 179° (S) 2,780 6.5 -20.0°
Sets 04:31:50 0° 178° (S) 3,730 7.2 -19.6°
